[[{"header":{"parameterUnit":"m.s-1","parameterCategory":1,"la1":30.2991,"la2":30.254,"lo1":-89.0895,"lo2":-89.0444,"dy":0.0017,"dx":0.0017,"nx":28,"ny":28,"refTime":"2024-05-15T03:00:00:Z","depth":0,"parameterNumber":2,"parameterNumberName":"U-component_of_WINDS"},"data":[0,0,0,0,0,0,0,0,0,0,0,0,0,0,0,0,0,0,0,0,0,0,0,0,0,0,0,0,0,0,0,0,0,0,0,0,0,0,0,0,0,0,0,0,0,0,0,0,0,0,0,0,0,0,0,0,0,0,2.1132,2.1131,0,2.1095,2.1095,2.1094,2.1016,2.1014,2.1013,2.1011,2.0977,2.0978,2.0978,0,0,0,0,0,0,0,0,0,0,0,0,0,2.1139,2.1139,2.1132,2.1131,2.1131,2.1095,2.1095,2.1094,2.1016,2.1014,2.1012,2.1011,2.0977,2.0978,2.0978,0,0,0,0,0,0,0,0,0,0,0,0,0,2.1122,2.1139,2.1132,2.1088,2.1083,2.1095,2.1095,2.1094,2.1017,2.1014,2.1012,2.101,2.0977,2.0978,2.0978,2.1032,0,0,2.0981,2.0981,0,0,0,0,0,0,0,0,2.1123,2.1122,2.1095,2.1091,2.1086,2.1058,2.1084,2.1073,2.1017,2.1042,2.1011,2.1008,2.1006,2.1004,2.1003,2.103,2.1029,2.0981,2.0982,2.0982,2.0982,0,0,0,0,0,0,0,2.1125,2.1123,2.1117,2.1094,2.1089,2.1071,2.1066,2.1082,2.1038,2.104,2.1034,2.103,2.1003,2.1002,2.1002,2.1028,2.0981,2.0982,2.0982,2.0983,2.1098,2.1101,0,0,0,0,0,0,2.1132,2.1125,2.1119,2.1116,2.1099,2.1073,2.1067,2.1069,2.1038,2.103,2.1033,2.1027,2.1002,2.1001,2.1,2.106,2.0982,2.0983,2.0983,2.1096,2.1099,2.1102,0,0,0,0,0,0,2.1132,2.1132,2.112,2.1119,2.1116,2.1075,2.1078,2.107,2.1068,2.1032,2.1024,2.1039,2.1,2.0999,2.1024,2.1058,2.0983,2.0984,2.1093,2.1097,2.11,2.1182,0,0,0,0,0,0,2.1133,2.1132,2.1151,2.112,2.1116,2.1144,2.108,2.1071,2.107,2.1062,2.1036,2.103,2.0998,2.1023,2.1025,2.1058,2.0985,2.1089,2.1094,2.1099,2.1176,2.1188,2.1198,0,0,0,0,0,2.1133,2.1176,2.1152,2.1152,2.1139,2.1146,2.1144,2.1105,2.1073,2.1092,2.1069,2.1031,2.1054,2.1027,2.1028,2.1062,2.1087,2.1093,2.1099,2.1171,2.1186,2.1198,0,0,0,0,0,0,2.1213,2.1171,2.1144,2.1178,2.1166,2.1133,2.1155,2.1122,2.112,2.1113,2.1067,2.1061,2.1094,2.108,2.105,2.1112,2.1065,2.1071,2.1119,2.1133,2.1144,2.1147,2.0985,0,0,0,0,0,2.1235,2.1243,2.1206,2.124,2.1235,2.1197,2.1198,2.117,2.1156,2.1151,2.1129,2.1118,2.1123,2.1127,2.113,2.1174,2.1168,2.1198,2.1209,2.1219,2.1225,2.1248,2.1261,2.112,2.112,2.112,0,0,2.1279,2.1257,2.1266,2.1255,2.1242,2.1253,2.1193,2.1207,2.1214,2.1153,2.1175,2.116,2.1145,2.118,2.1194,2.117,2.1262,2.1226,2.1234,2.1234,2.1255,2.1269,2.128,2.1124,2.1124,2.1123,0,0,2.1366,2.135,2.1376,2.1365,2.1346,2.132,2.1327,2.1299,2.1286,2.1308,2.1262,2.1272,2.1281,2.1272,2.1269,2.1354,2.132,2.1357,2.1415,2.1438,2.1449,2.1459,2.149,2.1502,2.1363,2.1363,2.1363,0,2.1424,2.1437,2.1395,2.1411,2.1409,2.1353,2.138,2.1372,2.1355,2.1356,2.1328,2.1339,2.1325,2.1358,2.1379,2.1378,2.1385,2.1359,2.1451,2.146,2.1469,2.1498,2.1509,2.1368,2.1367,2.1367,2.1366,0,2.151,2.152,2.1544,2.1528,2.1529,2.1551,2.1513,2.1519,2.1491,2.1469,2.1493,2.1474,2.1472,2.1478,2.1451,2.1507,2.1493,2.1459,2.141,2.1487,2.1514,2.1525,2.1374,2.1373,2.1371,2.137,0,0,2.1644,2.1606,2.1615,2.1608,2.1584,2.1592,2.1612,2.161,2.1616,2.1607,2.1624,2.1634,2.1603,2.1599,2.1571,2.1592,2.1661,2.1555,2.1554,2.1576,2.1724,2.1749,2.1763,2.1639,2.164,2.1642,2.1725,0,2.1725,2.1756,2.1719,2.1759,2.1768,2.1717,2.1735,2.1723,2.1704,2.171,2.1689,2.1697,2.1655,2.1652,2.167,2.1649,2.1691,2.1643,2.1655,2.1656,2.166,2.1776,2.1803,2.1882,2.1735,2.1737,2.1738,0,2.1823,2.1818,2.1859,2.1833,2.1836,2.1852,2.1848,2.1854,2.1841,2.1825,2.1822,2.1788,2.1808,2.1762,2.1789,2.1758,2.1761,2.1751,2.1754,2.1753,2.1701,2.1779,2.1906,2.1919,2.1754,2.1753,2.1752,0,2.1918,2.1922,2.1946,2.1942,2.1912,2.1926,2.1914,2.1898,2.1899,2.1896,2.1897,2.1896,2.1896,2.1897,2.1865,2.1834,2.1897,2.1848,2.1886,2.1887,2.1901,2.1901,2.2031,2.1904,2.1904,2.1903,2.1903,0,2.2012,2.2038,2.1988,2.2003,2.2033,2.1991,2.2022,2.2005,2.1992,2.2004,2.196,2.1973,2.193,2.1939,2.1914,2.1941,2.1942,2.1931,2.1924,2.1934,2.1936,2.1935,2.1929,2.1906,2.1906,2.1905,2.1905,0,2.2121,2.2089,2.2112,2.2083,2.2076,2.2099,2.2075,2.2089,2.2067,2.2083,2.2085,2.2051,2.2059,2.2027,2.2031,2.2014,2.2055,2.2039,2.2059,2.2054,2.2094,2.2091,2.2229,2.2245,2.2108,2.2109,2.211,0,2.2183,2.2202,2.2175,2.218,2.2171,2.2179,2.218,2.214,2.2144,2.2131,2.2147,2.2151,2.2152,2.2169,2.2145,2.2148,2.2132,2.218,2.2132,2.2143,2.2133,2.2132,2.2135,2.219,2.2192,2.2193,2.2194,0,2.2296,2.2279,2.2282,2.2279,2.2282,2.2278,2.2271,2.2278,2.2236,2.2242,2.225,2.2251,2.2254,2.226,2.2258,2.2248,2.2215,2.221,2.2219,2.223,2.2241,2.2236,2.2086,2.2206,2.2205,2.2204,2.2204,2.2203,2.2384,2.2399,2.2382,2.2387,2.2378,2.2373,2.2385,2.2365,2.237,2.2369,2.2346,2.2359,2.2346,2.234,2.2334,2.2344,2.2322,2.2335,2.2338,2.2342,2.2349,2.2239,2.2344,2.2343,2.2343,2.2343,2.2342,0,2.2495,2.2482,2.2486,2.2479,2.2483,2.245,2.2442,2.2448,2.2459,2.245,2.2453,2.2463,2.2468,2.2446,2.2449,2.2462,2.2447,2.2464,2.2463,2.2461,2.2369,2.2361,2.2476,2.2476,2.2476,2.2476,2.2476,2.2476,2.2553,2.2577,2.2559,2.2579,2.2566,2.2577,2.2575,2.2571,2.2564,2.2576,2.2581,2.2566,2.2552,2.2554,2.2559,2.2552,2.2555,2.2578,2.2567,2.248,2.2467,2.2455,2.2447,2.2579,2.2579,2.2658,2.2659,2.2659]},{"header":{"parameterUnit":"m.s-1","parameterCategory":1,"la1":30.2991,"la2":30.254,"lo1":-89.0895,"lo2":-89.0444,"dy":0.0017,"dx":0.0017,"nx":28,"ny":28,"refTime":"2024-05-15T03:00:00:Z","depth":0,"parameterNumber":3,"parameterNumberName":"V-component_of_WINDS"},"data":[0,0,0,0,0,0,0,0,0,0,0,0,0,0,0,0,0,0,0,0,0,0,0,0,0,0,0,0,0,0,0,0,0,0,0,0,0,0,0,0,0,0,0,0,0,0,0,0,0,0,0,0,0,0,0,0,0,0,3.9836,3.9838,0,3.9991,3.9993,3.9995,4.004,4.0039,4.0038,4.0038,4.0189,4.0194,4.0199,0,0,0,0,0,0,0,0,0,0,0,0,0,3.9573,3.9578,3.9836,3.9838,3.984,3.9991,3.9993,3.9995,4.004,4.0039,4.0038,4.0037,4.0188,4.0193,4.0199,0,0,0,0,0,0,0,0,0,0,0,0,0,3.9703,3.9579,3.9836,3.9881,3.9887,3.999,3.9993,3.9996,4.004,4.0039,4.0038,4.0037,4.0186,4.0193,4.02,4.0268,0,0,4.0222,4.0225,0,0,0,0,0,0,0,0,3.9696,3.9713,3.9872,3.9878,3.9884,3.9995,3.9956,4.0087,4.0041,3.9982,4.0038,4.0036,4.0125,4.0137,4.0169,4.0275,4.0282,4.0222,4.0227,4.023,4.0232,0,0,0,0,0,0,0,3.9687,3.9707,3.9897,3.9875,3.9882,3.9891,3.9908,3.9981,4.0058,3.9987,3.999,4.0008,4.0128,4.0162,4.0173,4.0284,4.0222,4.0229,4.0233,4.0236,4.0453,4.0455,0,0,0,0,0,0,3.9671,3.9699,3.9892,3.9902,3.9786,3.9897,3.9916,3.9961,4.0057,4.0071,4.0009,4.001,4.015,4.0164,4.0178,4.0265,4.023,4.0237,4.0241,4.0452,4.0454,4.0455,0,0,0,0,0,0,3.9665,3.9688,3.9886,3.9802,3.9828,3.9903,3.9952,3.9964,3.9998,4.0075,4.0088,4.003,4.015,4.0168,4.0246,4.027,4.024,4.0246,4.045,4.0452,4.0454,4.0438,0,0,0,0,0,0,3.9658,3.9686,3.9714,3.9802,3.9832,3.9953,3.9954,3.9968,4.0011,4.0013,4.0097,4.011,4.015,4.0235,4.0253,4.028,4.0252,4.0448,4.0451,4.0454,4.0436,4.0439,4.0441,0,0,0,0,0,3.9648,3.9702,3.9715,3.9738,3.9869,3.9955,3.9971,4.0019,4.0013,4.0041,4.009,4.0107,4.0265,4.0242,4.0263,4.0292,4.0447,4.045,4.0453,4.0435,4.0438,4.0441,0,0,0,0,0,0,3.9612,3.9714,3.973,3.9814,3.9876,3.9962,3.9999,4.002,4.0083,4.0082,4.0136,4.0154,4.0228,4.0268,4.0241,4.0363,4.0356,4.0364,4.0335,4.0339,4.0341,4.033,4.0258,0,0,0,0,0,3.9615,3.9678,3.9762,3.9828,3.9858,3.9923,3.9962,3.9993,4.0058,4.0084,4.0138,4.0199,4.0262,4.0302,4.0365,4.0442,4.046,4.0472,4.0474,4.0476,4.0482,4.0526,4.0532,4.0466,4.0466,4.0466,0,0,3.9619,3.9683,3.9719,3.9822,3.9874,3.9936,3.9945,4.001,4.0056,4.0093,4.0171,4.0213,4.0283,4.0361,4.0398,4.0397,4.0504,4.048,4.0481,4.0486,4.053,4.0536,4.0541,4.0468,4.0468,4.0468,0,0,3.966,3.9714,3.9776,3.9827,3.9906,3.9948,3.9963,4.0046,4.0077,4.0156,4.0184,4.0238,4.0346,4.0396,4.0435,4.0493,4.0512,4.0512,4.0525,4.0567,4.0572,4.0577,4.0598,4.0605,4.0517,4.0517,4.0517,0,3.9656,3.9753,3.9804,3.9868,3.9913,3.995,4.0012,4.0058,4.0152,4.0181,4.0178,4.0314,4.0364,4.0454,4.0469,4.0499,4.0516,4.0503,4.0567,4.0573,4.0578,4.0599,4.0607,4.0517,4.0517,4.0517,4.0517,0,3.9743,3.981,3.9849,3.9942,3.999,4.0052,4.0111,4.0153,4.0179,4.0222,4.0301,4.0363,4.0438,4.0461,4.0487,4.0555,4.0552,4.0557,4.0551,4.0583,4.0604,4.0612,4.0516,4.0517,4.0517,4.0517,0,0,3.9767,3.9886,3.99,3.9942,4.0031,4.0083,4.0145,4.0222,4.0257,4.0319,4.0373,4.0463,4.047,4.0514,4.0545,4.0581,4.0624,4.0583,4.0585,4.0589,4.0703,4.0698,4.0707,4.0636,4.0638,4.0639,4.0697,0,3.9819,3.9936,3.9984,4.0078,4.014,4.0176,4.0231,4.029,4.0331,4.0388,4.0432,4.0495,4.0498,4.0525,4.0563,4.0611,4.0648,4.0607,4.0685,4.0688,4.0668,4.0718,4.0714,4.0765,4.0705,4.0706,4.0707,0,3.9896,3.9962,4.0063,4.0145,4.0172,4.0221,4.0295,4.0349,4.0416,4.0443,4.0492,4.0522,4.0587,4.0576,4.0667,4.0638,4.0672,4.07,4.0703,4.0713,4.07,4.0729,4.0782,4.079,4.072,4.0719,4.0718,0,3.9903,4.0017,4.0092,4.0127,4.0224,4.0257,4.0299,4.0365,4.0408,4.0471,4.0499,4.0567,4.0605,4.0657,4.0703,4.0691,4.0789,4.0782,4.0812,4.0811,4.0832,4.083,4.0892,4.0853,4.0852,4.0852,4.0852,0,3.9957,4.0018,4.0097,4.0144,4.0212,4.0264,4.033,4.0373,4.0432,4.0486,4.052,4.0569,4.0627,4.0683,4.0719,4.0789,4.0805,4.0828,4.0837,4.0825,4.0823,4.0849,4.0847,4.0854,4.0854,4.0854,4.0853,0,3.9978,4.0033,4.0118,4.0203,4.0226,4.0272,4.0344,4.039,4.0432,4.05,4.0519,4.0584,4.0653,4.0704,4.0791,4.0815,4.0889,4.0898,4.0867,4.0872,4.09,4.0897,4.0982,4.0996,4.0946,4.0946,4.0946,0,4.0009,4.0057,4.0147,4.0187,4.0229,4.0292,4.0337,4.0389,4.0434,4.0514,4.0549,4.062,4.068,4.0786,4.084,4.0907,4.0918,4.0943,4.0928,4.0916,4.092,4.0917,4.0922,4.0946,4.0946,4.0946,4.0946,0,4.0058,4.0084,4.0148,4.0221,4.0273,4.0333,4.0393,4.0423,4.0486,4.0534,4.0605,4.0651,4.0742,4.0811,4.0884,4.0924,4.0945,4.0951,4.0961,4.0951,4.0932,4.0943,4.0874,4.0949,4.0948,4.0948,4.0948,4.0948,4.0086,4.013,4.0201,4.0271,4.0322,4.0378,4.0425,4.0474,4.0535,4.0614,4.0641,4.0714,4.0779,4.0879,4.092,4.0977,4.0977,4.0992,4.0996,4.0999,4.0999,4.0922,4.099,4.099,4.099,4.099,4.099,0,4.0138,4.0186,4.0249,4.0334,4.0388,4.0405,4.0472,4.0516,4.0582,4.0641,4.07,4.0781,4.0849,4.0909,4.0978,4.1012,4.1024,4.1029,4.1027,4.1036,4.0994,4.0979,4.1019,4.1019,4.1019,4.1018,4.1018,4.1018,4.0172,4.0248,4.0281,4.0382,4.0429,4.0504,4.054,4.0591,4.0639,4.073,4.0787,4.0826,4.0886,4.096,4.1022,4.1038,4.1062,4.1065,4.1083,4.1043,4.1039,4.1036,4.1021,4.107,4.107,4.1121,4.1121,4.1121]}]]